Weather History for Rifle, CO

Change the Weather History Date:

Monday, June 24, 2013

  Actual Average Record
Temperature  
Mean Temperature 68 °F 69 °F  
Max Temperature 87 °F 88 °F 99 °F (1990)
Min Temperature 49 °F 50 °F 35 °F (1993)
Degree Days  
Heating Degree Days 0 0  
Month to date heating degree days 13 57  
Since 1 June heating degree days 13 57  
Since 1 July heating degree days 6694 6623  
Cooling Degree Days 3 4  
Month to date cooling degree days 84 63  
Year to date cooling degree days 91 70  
Since 1 June cooling degree days 84 63  
Growing Degree Days 18 (Base 50)    
Moisture  
Dew Point 23 °F    
Average Humidity 24    
Maximum Humidity 41    
Minimum Humidity 7    
Precipitation  
Precipitation 0.00 in 0.03 in 1.46 in (1969)
Month to date precipitation T 0.92  
Year to date precipitation 3.99 6.34  
Sea Level Pressure  
Sea Level Pressure 29.72 in    
Wind  
Wind Speed 8 mph (SW)    
Max Wind Speed 31 mph    
Max Gust Speed 39 mph    
Visibility 10 miles    
Events      
T = Trace of Precipitation, MM = Missing Value Source: NWS Daily Summary

Daily Weather History Graph

Daily Weather History Graph

Search for Another Location

Airport:

Trip Planner

Search our weather history database for the weather conditions in past years. The results will help you decide how hot, cold, wet, or windy it might be!

Date:

Astronomy

Jun. 24, 2013 Rise Set
Actual Time 5:44 AM MDT 8:42 PM MDT
Civil Twilight 5:12 AM MDT 9:14 PM MDT
Nautical Twilight 4:30 AM MDT 9:55 PM MDT
Astronomical Twilight 3:43 AM MDT 10:43 PM MDT
Moon 9:47 PM MDT (6/24) 7:15 AM MDT (6/24)
Length of Visible Light 16h 02m
Length of Day
14h 57m
Full, 97% of the Moon is Illuminated
Jun 24
Full
Jun 29
Last Quarter
Jul 8
New
Jul 15
First Quarter
Jul 22
Full

Hourly Weather History & Observations

Time (MDT) Temp. Dew Point Humidity Pressure Visibility Wind Dir Wind Speed Gust Speed Precip Events Conditions
12:53 AM 61.0 °F 30.9 °F 32% 29.68 in 10.0 mi West 3.5 mph - N/A   Clear
1:53 AM 60.1 °F 26.1 °F 27% 29.66 in 10.0 mi Calm Calm - N/A   Clear
2:53 AM 55.0 °F 24.1 °F 30% 29.68 in 10.0 mi Calm Calm - N/A   Clear
3:53 AM 53.1 °F 25.0 °F 34% 29.68 in 10.0 mi Calm Calm - N/A   Clear
4:53 AM 51.1 °F 24.1 °F 35% 29.70 in 10.0 mi SW 3.5 mph - N/A   Clear
5:53 AM 50.0 °F 25.0 °F 38% 29.73 in 10.0 mi Calm Calm - N/A   Clear
6:53 AM 54.0 °F 30.0 °F 40% 29.74 in 10.0 mi Calm Calm - N/A   Clear
7:53 AM 55.9 °F 30.9 °F 39% 29.76 in 10.0 mi Calm Calm - N/A   Clear
8:53 AM 61.0 °F 30.0 °F 31% 29.77 in 10.0 mi Calm Calm - N/A   Clear
9:53 AM 66.9 °F 27.0 °F 22% 29.77 in 10.0 mi Calm Calm - N/A   Clear
10:53 AM 75.9 °F 30.9 °F 19% 29.74 in 10.0 mi Calm Calm - N/A   Clear
11:53 AM 82.0 °F 14.0 °F 8% 29.70 in 10.0 mi SW 11.5 mph 21.9 mph N/A   Clear
12:53 PM 84.0 °F 18.0 °F 9% 29.69 in 10.0 mi South 13.8 mph 24.2 mph N/A   Clear
1:42 PM 84.2 °F 17.6 °F 8% 29.89 in 10.0 mi SSW 15.0 mph 21.9 mph N/A   Clear
1:53 PM 86.0 °F 16.0 °F 7% 29.68 in 10.0 mi SSW 21.9 mph 34.5 mph N/A   Clear
2:53 PM 84.9 °F 16.0 °F 8% 29.68 in 10.0 mi SSW 20.7 mph 32.2 mph N/A   Clear
3:53 PM 82.9 °F 16.0 °F 8% 29.69 in 10.0 mi SW 15.0 mph 32.2 mph N/A   Clear
4:53 PM 84.0 °F 19.0 °F 9% 29.68 in 10.0 mi SW 15.0 mph 25.3 mph N/A   Clear
5:00 PM 84.2 °F 19.4 °F 9% 29.88 in 10.0 mi SSW 9.2 mph 27.6 mph N/A   Clear
5:53 PM 82.9 °F 19.9 °F 10% 29.68 in 10.0 mi South 13.8 mph 24.2 mph N/A   Clear
6:53 PM 81.0 °F 19.9 °F 10% 29.69 in 10.0 mi SW 21.9 mph 34.5 mph N/A   Clear
7:53 PM 80.1 °F 23.0 °F 12% 29.70 in 10.0 mi SSW 12.7 mph 33.4 mph N/A   Clear
8:53 PM 79.0 °F 21.9 °F 12% 29.70 in 10.0 mi South 12.7 mph 24.2 mph N/A   Clear
9:53 PM 77.0 °F 24.1 °F 14% 29.71 in 10.0 mi WSW 5.8 mph 27.6 mph N/A   Clear
10:53 PM 75.9 °F 27.0 °F 16% 29.72 in 10.0 mi WSW 20.7 mph 25.3 mph N/A   Clear
11:53 PM 73.9 °F 28.0 °F 18% 29.70 in 10.0 mi Calm Calm - N/A   Clear